Time,TemperatureF,DewpointF,PressureIn,WindDirection,WindDirectionDegrees,WindSpeedMPH,WindSpeedGustMPH,Humidity,HourlyPrecipIn,Conditions,Clouds,dailyrainin,SoftwareType,DateUTC
2013-03-05 00:02:00,47.0,45.0,30.07,SSE,156,0.0,-999.0,91,-99.99,,,-99.99,,2013-03-05 08:02:00,
2013-03-05 00:11:00,47.0,45.0,30.07,SSE,156,0.0,-999.0,91,-99.99,,,-99.99,,2013-03-05 08:11:00,
2013-03-05 00:21:00,47.0,45.0,30.07,SSE,156,0.0,-999.0,91,-99.99,,,-99.99,,2013-03-05 08:21:00,
2013-03-05 00:31:00,47.0,45.0,30.07,SSE,156,0.0,-999.0,91,-99.99,,,-99.99,,2013-03-05 08:31:00,
2013-03-05 00:41:00,47.0,45.0,30.07,SSE,156,0.0,-999.0,91,-99.99,,,-99.99,,2013-03-05 08:41:00,
2013-03-05 00:51:00,48.0,45.0,30.07,SSE,159,0.0,-999.0,91,-99.99,,,-99.99,,2013-03-05 08:51:00,
2013-03-05 01:01:00,48.0,45.0,30.07,SSE,161,0.0,-999.0,91,-99.99,,,-99.99,,2013-03-05 09:01:00,
2013-03-05 01:11:00,48.0,45.0,30.07,SSE,161,0.0,-999.0,91,-99.99,,,-99.99,,2013-03-05 09:11:00,
2013-03-05 01:21:00,47.0,45.0,30.07,SSE,161,0.0,-999.0,91,-99.99,,,-99.99,,2013-03-05 09:21:00,
2013-03-05 01:31:00,47.0,45.0,30.07,SSE,161,0.0,-999.0,91,-99.99,,,-99.99,,2013-03-05 09:31:00,
2013-03-05 01:42:00,47.0,45.0,30.07,SSE,161,0.0,-999.0,91,-99.99,,,-99.99,,2013-03-05 09:42:00,
2013-03-05 01:51:00,46.0,44.0,30.07,SSE,161,0.0,-999.0,92,-99.99,,,-99.99,,2013-03-05 09:51:00,
2013-03-05 02:01:00,46.0,44.0,30.06,SSE,161,0.0,-999.0,92,-99.99,,,-99.99,,2013-03-05 10:01:00,
2013-03-05 02:11:00,46.0,44.0,30.06,SSE,161,0.0,-999.0,92,-99.99,,,-99.99,,2013-03-05 10:11:00,
2013-03-05 02:21:00,46.0,44.0,30.06,SSE,161,0.0,-999.0,92,-99.99,,,-99.99,,2013-03-05 10:21:00,
2013-03-05 02:32:00,46.0,44.0,30.06,SSE,161,0.0,-999.0,92,-99.99,,,-99.99,,2013-03-05 10:32:00,
2013-03-05 02:41:00,46.0,44.0,30.06,SSE,161,0.0,-999.0,92,-99.99,,,-99.99,,2013-03-05 10:41:00,
2013-03-05 02:51:00,46.0,44.0,30.06,SSE,161,0.0,-999.0,92,-99.99,,,-99.99,,2013-03-05 10:51:00,
2013-03-05 03:01:00,46.0,44.0,30.06,SSE,161,0.0,-999.0,92,-99.99,,,-99.99,,2013-03-05 11:01:00,
2013-03-05 03:11:00,46.0,44.0,30.06,SSE,161,0.0,-999.0,92,-99.99,,,-99.99,,2013-03-05 11:11:00,
2013-03-05 03:21:00,46.0,44.0,30.07,SSE,161,0.0,-999.0,93,-99.99,,,-99.99,,2013-03-05 11:21:00,
2013-03-05 03:32:00,46.0,44.0,30.07,SSE,161,0.0,-999.0,92,-99.99,,,-99.99,,2013-03-05 11:32:00,
2013-03-05 03:41:00,46.0,44.0,30.07,SSE,161,0.0,-999.0,92,-99.99,,,-99.99,,2013-03-05 11:41:00,
2013-03-05 03:52:00,46.0,44.0,30.07,SSE,161,0.0,-999.0,93,-99.99,,,-99.99,,2013-03-05 11:52:00,
2013-03-05 04:02:00,47.0,45.0,30.07,SSE,161,0.0,-999.0,93,-99.99,,,-99.99,,2013-03-05 12:02:00,
2013-03-05 04:11:00,47.0,45.0,30.07,SSE,161,0.0,-999.0,93,-99.99,,,-99.99,,2013-03-05 12:11:00,
2013-03-05 04:22:00,47.0,45.0,30.07,SSE,161,0.0,-999.0,93,-99.99,,,-99.99,,2013-03-05 12:22:00,
2013-03-05 04:32:00,47.0,45.0,30.07,SSE,161,0.0,-999.0,94,-99.99,,,-99.99,,2013-03-05 12:32:00,
2013-03-05 04:42:00,47.0,45.0,30.07,SSE,161,0.0,-999.0,94,-99.99,,,-99.99,,2013-03-05 12:42:00,
2013-03-05 04:52:00,47.0,45.0,30.07,SSE,161,0.0,-999.0,94,-99.99,,,-99.99,,2013-03-05 12:52:00,
2013-03-05 05:01:00,47.0,45.0,30.06,SSE,161,0.0,-999.0,94,-99.99,,,-99.99,,2013-03-05 13:01:00,
2013-03-05 05:11:00,47.0,45.0,30.06,SSE,161,0.0,-999.0,94,-99.99,,,-99.99,,2013-03-05 13:11:00,
2013-03-05 05:21:00,47.0,45.0,30.07,SSE,161,0.0,-999.0,94,-99.99,,,-99.99,,2013-03-05 13:21:00,
2013-03-05 05:31:00,47.0,45.0,30.07,SSE,161,0.0,-999.0,94,-99.99,,,-99.99,,2013-03-05 13:31:00,
2013-03-05 05:42:00,47.0,45.0,30.07,SSE,161,0.0,-999.0,94,-99.99,,,-99.99,,2013-03-05 13:42:00,
2013-03-05 05:52:00,47.0,46.0,30.07,SSE,161,0.0,-999.0,95,-99.99,,,-99.99,,2013-03-05 13:52:00,
2013-03-05 06:02:00,47.0,46.0,30.07,SSE,161,0.0,-999.0,95,-99.99,,,-99.99,,2013-03-05 14:02:00,
2013-03-05 06:11:00,47.0,46.0,30.07,SSE,161,0.0,-999.0,95,-99.99,,,-99.99,,2013-03-05 14:11:00,
2013-03-05 06:21:00,47.0,46.0,30.07,SSE,161,0.0,-999.0,95,-99.99,,,-99.99,,2013-03-05 14:21:00,
2013-03-05 06:31:00,48.0,47.0,30.07,SSE,161,0.0,-999.0,95,-99.99,,,-99.99,,2013-03-05 14:31:00,
2013-03-05 06:42:00,48.0,47.0,30.07,SSE,161,0.0,-999.0,95,-99.99,,,-99.99,,2013-03-05 14:42:00,
2013-03-05 06:52:00,48.0,47.0,30.07,SSE,161,0.0,-999.0,95,-99.99,,,-99.99,,2013-03-05 14:52:00,
2013-03-05 07:01:00,48.0,47.0,30.08,SSE,152,0.0,-999.0,95,-99.99,,,-99.99,,2013-03-05 15:01:00,
2013-03-05 07:11:00,48.0,47.0,30.08,SSE,152,0.0,-999.0,95,-99.99,,,-99.99,,2013-03-05 15:11:00,
2013-03-05 07:21:00,48.0,47.0,30.08,ESE,111,0.0,-999.0,95,-99.99,,,-99.99,,2013-03-05 15:21:00,
2013-03-05 07:31:00,48.0,47.0,30.08,ESE,111,0.0,-999.0,95,-99.99,,,-99.99,,2013-03-05 15:31:00,
2013-03-05 07:42:00,48.0,47.0,30.08,ESE,111,0.0,-999.0,95,-99.99,,,-99.99,,2013-03-05 15:42:00,
2013-03-05 07:51:00,48.0,47.0,30.08,ESE,110,0.0,-999.0,95,-99.99,,,-99.99,,2013-03-05 15:51:00,
2013-03-05 08:01:00,48.0,47.0,30.08,ESE,111,0.0,-999.0,95,-99.99,,,-99.99,,2013-03-05 16:01:00,
2013-03-05 08:11:00,48.0,47.0,30.08,ESE,111,0.0,-999.0,95,-99.99,,,-99.99,,2013-03-05 16:11:00,
2013-03-05 08:21:00,49.0,48.0,30.09,ESE,105,0.0,-999.0,95,-99.99,,,-99.99,,2013-03-05 16:21:00,
2013-03-05 08:31:00,49.0,48.0,30.09,ESE,105,0.0,-999.0,95,-99.99,,,-99.99,,2013-03-05 16:31:00,
2013-03-05 08:41:00,49.0,48.0,30.09,ESE,105,0.0,-999.0,95,-99.99,,,-99.99,,2013-03-05 16:41:00,
2013-03-05 08:51:00,49.0,47.0,30.09,East,94,0.0,-999.0,94,-99.99,,,-99.99,,2013-03-05 16:51:00,
2013-03-05 09:01:00,49.0,47.0,30.10,East,94,0.0,-999.0,94,-99.99,,,-99.99,,2013-03-05 17:01:00,
2013-03-05 09:11:00,49.0,47.0,30.10,East,94,0.0,-999.0,94,-99.99,,,-99.99,,2013-03-05 17:11:00,
2013-03-05 09:21:00,50.0,48.0,30.10,East,94,0.0,-999.0,93,-99.99,,,-99.99,,2013-03-05 17:21:00,
2013-03-05 09:32:00,50.0,48.0,30.10,SSE,165,0.0,-999.0,93,-99.99,,,-99.99,,2013-03-05 17:32:00,
2013-03-05 09:41:00,50.0,48.0,30.10,SSE,165,0.0,-999.0,93,-99.99,,,-99.99,,2013-03-05 17:41:00,
2013-03-05 09:52:00,51.0,49.0,30.11,SSW,193,0.0,-999.0,92,-99.99,,,-99.99,,2013-03-05 17:52:00,
2013-03-05 10:01:00,51.0,48.0,30.11,SW,225,0.0,-999.0,90,-99.99,,,-99.99,,2013-03-05 18:01:00,
2013-03-05 10:11:00,51.0,48.0,30.11,SW,225,0.0,-999.0,90,-99.99,,,-99.99,,2013-03-05 18:11:00,
2013-03-05 10:21:00,52.0,49.0,30.11,SW,225,0.0,-999.0,88,-99.99,,,-99.99,,2013-03-05 18:21:00,
2013-03-05 10:32:00,52.0,48.0,30.11,WSW,238,1.0,-999.0,86,-99.99,,,-99.99,,2013-03-05 18:32:00,
2013-03-05 10:41:00,52.0,48.0,30.11,WSW,238,1.0,-999.0,86,-99.99,,,-99.99,,2013-03-05 18:41:00,
2013-03-05 10:52:00,52.0,48.0,30.10,WSW,241,1.0,-999.0,86,-99.99,,,-99.99,,2013-03-05 18:52:00,
2013-03-05 11:01:00,54.0,49.0,30.09,WSW,241,0.0,-999.0,83,-99.99,,,-99.99,,2013-03-05 19:01:00,
2013-03-05 11:11:00,54.0,49.0,30.09,WSW,241,0.0,-999.0,83,-99.99,,,-99.99,,2013-03-05 19:11:00,
2013-03-05 11:21:00,55.0,49.0,30.08,WSW,241,0.0,-999.0,80,-99.99,,,-99.99,,2013-03-05 19:21:00,
2013-03-05 11:31:00,56.0,49.0,30.08,WNW,286,0.0,-999.0,77,-99.99,,,-99.99,,2013-03-05 19:31:00,
2013-03-05 11:41:00,56.0,49.0,30.08,WNW,286,0.0,-999.0,77,-99.99,,,-99.99,,2013-03-05 19:41:00,
2013-03-05 11:51:00,58.0,49.0,30.08,SE,131,1.0,-999.0,73,-99.99,,,-99.99,,2013-03-05 19:51:00,
2013-03-05 12:01:00,60.0,51.0,30.07,ESE,122,0.0,-999.0,72,-99.99,,,-99.99,,2013-03-05 20:01:00,
2013-03-05 12:11:00,61.0,50.0,30.06,North,360,0.0,-999.0,67,-99.99,,,-99.99,,2013-03-05 20:11:00,
2013-03-05 12:21:00,61.0,50.0,30.06,North,360,0.0,-999.0,67,-99.99,,,-99.99,,2013-03-05 20:21:00,
2013-03-05 12:32:00,61.0,50.0,30.05,WNW,290,1.0,-999.0,66,-99.99,,,-99.99,,2013-03-05 20:32:00,
2013-03-05 12:41:00,61.0,50.0,30.05,WNW,290,1.0,-999.0,66,-99.99,,,-99.99,,2013-03-05 20:41:00,
2013-03-05 12:52:00,61.0,50.0,30.05,NE,53,1.0,-999.0,67,-99.99,,,-99.99,,2013-03-05 20:52:00,
2013-03-05 13:01:00,63.0,49.0,30.04,ENE,67,1.0,-999.0,61,-99.99,,,-99.99,,2013-03-05 21:01:00,
2013-03-05 13:11:00,63.0,49.0,30.04,ENE,67,1.0,-999.0,61,-99.99,,,-99.99,,2013-03-05 21:11:00,
2013-03-05 13:21:00,65.0,52.0,30.04,SW,221,1.0,-999.0,63,-99.99,,,-99.99,,2013-03-05 21:21:00,
2013-03-05 13:31:00,64.0,52.0,30.03,SW,228,2.0,-999.0,65,-99.99,,,-99.99,,2013-03-05 21:31:00,
2013-03-05 13:41:00,64.0,52.0,30.03,SW,228,2.0,-999.0,65,-99.99,,,-99.99,,2013-03-05 21:41:00,
2013-03-05 13:52:00,62.0,52.0,30.03,SW,227,1.0,-999.0,69,-99.99,,,-99.99,,2013-03-05 21:52:00,
2013-03-05 14:01:00,62.0,52.0,30.03,SW,230,1.0,-999.0,69,-99.99,,,-99.99,,2013-03-05 22:01:00,
2013-03-05 14:11:00,62.0,52.0,30.03,SW,230,1.0,-999.0,69,-99.99,,,-99.99,,2013-03-05 22:11:00,
2013-03-05 14:21:00,61.0,51.0,30.03,SW,230,0.0,-999.0,70,-99.99,,,-99.99,,2013-03-05 22:21:00,
2013-03-05 14:31:00,59.0,50.0,30.03,SW,229,1.0,-999.0,72,-99.99,,,-99.99,,2013-03-05 22:31:00,
2013-03-05 14:41:00,59.0,50.0,30.03,SW,229,1.0,-999.0,72,-99.99,,,-99.99,,2013-03-05 22:41:00,
2013-03-05 14:52:00,57.0,49.0,30.03,SW,232,0.0,-999.0,75,-99.99,,,-99.99,,2013-03-05 22:52:00,
2013-03-05 15:01:00,56.0,49.0,30.03,WSW,242,1.0,-999.0,77,-99.99,,,-99.99,,2013-03-05 23:01:00,
2013-03-05 15:11:00,56.0,49.0,30.03,WSW,242,1.0,-999.0,77,-99.99,,,-99.99,,2013-03-05 23:11:00,
2013-03-05 15:21:00,55.0,49.0,30.03,WSW,252,0.0,-999.0,79,-99.99,,,-99.99,,2013-03-05 23:21:00,
2013-03-05 15:32:00,54.0,48.0,30.02,WSW,241,0.0,-999.0,80,-99.99,,,-99.99,,2013-03-05 23:32:00,
2013-03-05 15:41:00,54.0,48.0,30.02,WSW,241,0.0,-999.0,80,-99.99,,,-99.99,,2013-03-05 23:41:00,
2013-03-05 15:52:00,54.0,48.0,30.02,WSW,246,0.0,-999.0,81,-99.99,,,-99.99,,2013-03-05 23:52:00,
2013-03-05 16:01:00,54.0,48.0,30.02,SW,214,0.0,-999.0,81,-99.99,,,-99.99,,2013-03-06 00:01:00,
2013-03-05 16:11:00,54.0,48.0,30.02,SW,214,0.0,-999.0,81,-99.99,,,-99.99,,2013-03-06 00:11:00,
2013-03-05 16:21:00,53.0,48.0,30.02,WSW,248,1.0,-999.0,83,-99.99,,,-99.99,,2013-03-06 00:21:00,
2013-03-05 16:32:00,53.0,48.0,30.01,WSW,246,1.0,-999.0,83,-99.99,,,-99.99,,2013-03-06 00:32:00,
2013-03-05 16:41:00,53.0,48.0,30.01,WSW,246,1.0,-999.0,83,-99.99,,,-99.99,,2013-03-06 00:41:00,
2013-03-05 16:51:00,53.0,48.0,30.01,WSW,238,1.0,-999.0,84,-99.99,,,-99.99,,2013-03-06 00:51:00,
2013-03-05 17:01:00,53.0,48.0,30.02,WSW,242,0.0,-999.0,84,-99.99,,,-99.99,,2013-03-06 01:01:00,
2013-03-05 17:11:00,53.0,48.0,30.02,WSW,242,0.0,-999.0,84,-99.99,,,-99.99,,2013-03-06 01:11:00,
2013-03-05 17:21:00,53.0,48.0,30.02,WSW,243,1.0,-999.0,83,-99.99,,,-99.99,,2013-03-06 01:21:00,
2013-03-05 17:31:00,53.0,48.0,30.02,SW,234,0.0,-999.0,84,-99.99,,,-99.99,,2013-03-06 01:31:00,
2013-03-05 17:41:00,53.0,48.0,30.02,SW,234,0.0,-999.0,84,-99.99,,,-99.99,,2013-03-06 01:41:00,
2013-03-05 17:51:00,53.0,48.0,30.02,SW,234,0.0,-999.0,84,-99.99,,,-99.99,,2013-03-06 01:51:00,
2013-03-05 18:01:00,52.0,48.0,30.02,SW,234,0.0,-999.0,85,-99.99,,,-99.99,,2013-03-06 02:01:00,
2013-03-05 18:11:00,52.0,48.0,30.02,SW,234,0.0,-999.0,85,-99.99,,,-99.99,,2013-03-06 02:11:00,
2013-03-05 18:21:00,52.0,48.0,30.03,SW,234,0.0,-999.0,85,-99.99,,,-99.99,,2013-03-06 02:21:00,
2013-03-05 18:31:00,52.0,48.0,30.03,SW,235,0.0,-999.0,86,-99.99,,,-99.99,,2013-03-06 02:31:00,
2013-03-05 18:41:00,52.0,48.0,30.03,SW,235,0.0,-999.0,86,-99.99,,,-99.99,,2013-03-06 02:41:00,
2013-03-05 18:52:00,51.0,47.0,30.04,SW,235,0.0,-999.0,86,-99.99,,,-99.99,,2013-03-06 02:52:00,
2013-03-05 19:01:00,51.0,47.0,30.04,SW,233,0.0,-999.0,87,-99.99,,,-99.99,,2013-03-06 03:01:00,
2013-03-05 19:11:00,51.0,47.0,30.04,SW,233,0.0,-999.0,87,-99.99,,,-99.99,,2013-03-06 03:11:00,
2013-03-05 19:21:00,51.0,47.0,30.05,SW,233,0.0,-999.0,87,-99.99,,,-99.99,,2013-03-06 03:21:00,
2013-03-05 19:31:00,51.0,48.0,30.05,WSW,240,0.0,-999.0,88,-99.99,,,-99.99,,2013-03-06 03:31:00,
2013-03-05 19:41:00,51.0,48.0,30.05,WSW,240,0.0,-999.0,88,-99.99,,,-99.99,,2013-03-06 03:41:00,
2013-03-05 19:52:00,50.0,47.0,30.06,WSW,240,0.0,-999.0,88,-99.99,,,-99.99,,2013-03-06 03:52:00,
2013-03-05 20:01:00,50.0,47.0,30.06,WSW,240,0.0,-999.0,88,-99.99,,,-99.99,,2013-03-06 04:01:00,
2013-03-05 20:11:00,50.0,47.0,30.06,WSW,240,0.0,-999.0,88,-99.99,,,-99.99,,2013-03-06 04:11:00,
2013-03-05 20:21:00,50.0,47.0,30.06,WSW,240,0.0,-999.0,89,-99.99,,,-99.99,,2013-03-06 04:21:00,
2013-03-05 20:31:00,50.0,47.0,30.06,WSW,240,0.0,-999.0,89,-99.99,,,-99.99,,2013-03-06 04:31:00,
2013-03-05 20:41:00,50.0,47.0,30.06,WSW,240,0.0,-999.0,89,-99.99,,,-99.99,,2013-03-06 04:41:00,
2013-03-05 20:51:00,49.0,46.0,30.06,WSW,241,0.0,-999.0,89,-99.99,,,-99.99,,2013-03-06 04:51:00,
2013-03-05 21:01:00,49.0,46.0,30.07,WSW,247,0.0,-999.0,89,-99.99,,,-99.99,,2013-03-06 05:01:00,
2013-03-05 21:11:00,49.0,46.0,30.07,WSW,247,0.0,-999.0,89,-99.99,,,-99.99,,2013-03-06 05:11:00,
2013-03-05 21:22:00,49.0,46.0,30.07,WSW,247,0.0,-999.0,89,-99.99,,,-99.99,,2013-03-06 05:22:00,
2013-03-05 21:32:00,49.0,46.0,30.07,WSW,246,0.0,-999.0,89,-99.99,,,-99.99,,2013-03-06 05:32:00,
2013-03-05 21:42:00,49.0,46.0,30.07,WSW,246,0.0,-999.0,89,-99.99,,,-99.99,,2013-03-06 05:42:00,
2013-03-05 21:52:00,49.0,46.0,30.07,WSW,246,0.0,-999.0,89,-99.99,,,-99.99,,2013-03-06 05:52:00,
2013-03-05 22:01:00,49.0,46.0,30.08,WSW,247,0.0,-999.0,89,-99.99,,,-99.99,,2013-03-06 06:01:00,
2013-03-05 22:11:00,49.0,46.0,30.08,WSW,247,0.0,-999.0,89,-99.99,,,-99.99,,2013-03-06 06:11:00,
2013-03-05 22:22:00,49.0,46.0,30.08,WSW,248,0.0,-999.0,89,-99.99,,,-99.99,,2013-03-06 06:22:00,
2013-03-05 22:31:00,49.0,46.0,30.08,WSW,240,0.0,-999.0,89,-99.99,,,-99.99,,2013-03-06 06:31:00,
2013-03-05 22:41:00,49.0,46.0,30.08,WSW,240,0.0,-999.0,89,-99.99,,,-99.99,,2013-03-06 06:41:00,
2013-03-05 22:52:00,48.0,45.0,30.08,WSW,240,0.0,-999.0,89,-99.99,,,-99.99,,2013-03-06 06:52:00,
2013-03-05 23:01:00,48.0,45.0,30.09,West,261,0.0,-999.0,89,-99.99,,,-99.99,,2013-03-06 07:01:00,
2013-03-05 23:11:00,48.0,45.0,30.09,West,261,0.0,-999.0,89,-99.99,,,-99.99,,2013-03-06 07:11:00,
2013-03-05 23:22:00,48.0,45.0,30.10,WSW,241,0.0,-999.0,90,-99.99,,,-99.99,,2013-03-06 07:22:00,
2013-03-05 23:31:00,47.0,44.0,30.10,WSW,253,0.0,-999.0,90,-99.99,,,-99.99,,2013-03-06 07:31:00,
2013-03-05 23:42:00,47.0,44.0,30.10,WSW,253,0.0,-999.0,90,-99.99,,,-99.99,,2013-03-06 07:42:00,
2013-03-05 23:52:00,47.0,44.0,30.10,WSW,250,0.0,-999.0,90,-99.99,,,-99.99,,2013-03-06 07:52:00,